This is the latest recevied weather packets stored in our database for station/object WMKK. If no packets are shown the sender has not sent any weather packets the latest 10 day(s).
| Time | Temp. | Humidity | Pressure | Rain* | Wind** | Luminosity | Snow |
|---|---|---|---|---|---|---|---|
| 1777629597 | 27.78° C | 83% | 1007 hPa | - | - | - | - |
| 1777628397 | 31.67° C | 66% | 1006 hPa | - | - | - | - |
| 1777626619 | 32.78° C | 66% | 1006 hPa | - | - | - | - |
| 1777624796 | 33.89° C | 63% | 1005 hPa | - | - | - | - |
| 1777623014 | 32.78° C | 66% | 1005 hPa | - | - | - | - |
| 1777621193 | 31.67° C | 66% | 1005 hPa | - | - | - | - |
| 1777619411 | 32.78° C | 62% | 1006 hPa | - | - | - | - |
| 1777618193 | 31.67° C | 66% | 1007 hPa | - | - | - | - |
| 1777616389 | 31.67° C | 66% | 1008 hPa | - | - | - | - |
| 1777615817 | 30.56° C | 70% | 1008 hPa | - | - | - | - |
| 1777613993 | 31.67° C | 66% | 1008 hPa | - | - | - | - |
| 1777612219 | 33.89° C | 59% | 1009 hPa | - | - | - | - |
| 1777610396 | 33.89° C | 59% | 1009 hPa | - | - | - | - |
| 1777608611 | 32.78° C | 62% | 1010 hPa | - | - | - | - |
| 1777606793 | 33.89° C | 59% | 1010 hPa | - | - | - | - |
| 1777605010 | 32.78° C | 62% | 1010 hPa | - | - | - | - |
| 1777603193 | 31.67° C | 66% | 1010 hPa | - | - | - | - |
| 1777601411 | 30.56° C | 66% | 1010 hPa | - | - | - | - |
| 1777599593 | 30° C | 70% | 1010 hPa | - | - | - | - |
| 1777597818 | 28.89° C | 74% | 1009 hPa | - | - | - | - |
| 1777595996 | 27.78° C | 83% | 1009 hPa | - | - | - | - |
| 1777594211 | 25.56° C | 94% | 1008 hPa | - | - | - | - |
| 1777592393 | 25.56° C | 94% | 1008 hPa | - | - | - | - |
| 1777590610 | 25.56° C | 94% | 1008 hPa | - | - | - | - |
| 1777588792 | 25.56° C | 94% | 1007 hPa | - | - | - | - |
* Rain since midnight (hover to see other rain measurements)
** Current wind speed in m/s (hover to see current wind gust speed)